When you browse on this site, cookies collect data to enhance your experience and personalize the content and advertising you see.
Visit our Privacy Policy to learn more. By continuing to use the site, you agree to this use of cookies and data.
  • In Germany
  • List of Countries
  • For 7 days
  • Water Temperature
  • Satellite Maps
  • Weather Map
  • Weather Widgets
  • user-avatar
    Login

    Hourly Weather Sidi Bu-l-Abbas

    Today, 23 July, Tuesday

    Time Temperature Precipitation Wind Pressure Humidity
    00:00 +30°C° 0 mm 3 mps 722 mmHg 40%
    01:00 +30°C° 0 mm 2 mps 721 mmHg 43%
    02:00 +29°C° 0 mm 1 mps 720 mmHg 45%
    03:00 +28°C° 0 mm 1 mps 720 mmHg 48%
    04:00 +28°C° 0 mm 1 mps 720 mmHg 47%
    05:00 +26°C° 0 mm 0 mps 720 mmHg 47%
    06:00 +27°C° 0 mm 0 mps 720 mmHg 46%
    07:00 +29°C° 0 mm 0 mps 721 mmHg 40%
    08:00 +33°C° 0 mm 1 mps 721 mmHg 33%
    09:00 +35°C° 0 mm 1 mps 721 mmHg 27%
    10:00 +36°C° 0 mm 1 mps 721 mmHg 24%
    11:00 +39°C° 0 mm 2 mps 721 mmHg 21%
    12:00 +40°C° 0 mm 2 mps 721 mmHg 18%
    13:00 +41°C° 0 mm 2 mps 721 mmHg 18%
    14:00 +42°C° 0 mm 3 mps 721 mmHg 17%
    15:00 +43°C° 0 mm 4 mps 720 mmHg 17%
    16:00 +42°C° 0 mm 4 mps 720 mmHg 20%
    17:00 +41°C° 0 mm 5 mps 720 mmHg 22%
    18:00 +40°C° 0 mm 5 mps 719 mmHg 25%
    19:00 +37°C° 0 mm 4 mps 720 mmHg 29%
    20:00 +35°C° 0 mm 3 mps 720 mmHg 34%
    21:00 +32°C° 0 mm 2 mps 720 mmHg 38%
    22:00 +31°C° 0 mm 2 mps 720 mmHg 44%
    23:00 +30°C° 0 mm 2 mps 720 mmHg 50%

    Tomorrow, 24 July, Wednesday

    Time Temperature Precipitation Wind Pressure Humidity
    00:00 +29°C° 0 mm 2 mps 719 mmHg 55%
    01:00 +28°C° 0 mm 1 mps 719 mmHg 57%
    02:00 +28°C° 0 mm 1 mps 719 mmHg 59%
    03:00 +27°C° 0 mm 1 mps 718 mmHg 60%
    04:00 +27°C° 0 mm 1 mps 719 mmHg 60%
    05:00 +27°C° 0 mm 1 mps 719 mmHg 60%
    06:00 +27°C° 0 mm 1 mps 719 mmHg 60%
    07:00 +29°C° 0 mm 1 mps 720 mmHg 52%
    08:00 +31°C° 0 mm 1 mps 720 mmHg 44%
    09:00 +34°C° 0 mm 2 mps 720 mmHg 36%
    10:00 +36°C° 0 mm 2 mps 720 mmHg 32%
    11:00 +37°C° 0 mm 3 mps 720 mmHg 28%
    12:00 +39°C° 0 mm 3 mps 720 mmHg 24%
    13:00 +40°C° 0 mm 3 mps 720 mmHg 22%
    14:00 +40°C° 0 mm 3 mps 720 mmHg 21%
    15:00 +42°C° 0 mm 4 mps 719 mmHg 19%
    16:00 +41°C° 0 mm 4 mps 719 mmHg 23%
    17:00 +38°C° 0 mm 4 mps 719 mmHg 26%
    18:00 +37°C° 0 mm 4 mps 719 mmHg 29%
    19:00 +36°C° 0 mm 3 mps 719 mmHg 34%
    20:00 +34°C° 0 mm 2 mps 719 mmHg 39%
    21:00 +30°C° 0 mm 0 mps 720 mmHg 43%
    22:00 +30°C° 0 mm 1 mps 719 mmHg 49%
    23:00 +29°C° 0 mm 1 mps 719 mmHg 55%

    Day after tomorrow, 25 July, Thursday

    Time Temperature Precipitation Wind Pressure Humidity
    00:00 +27°C° 0 mm 2 mps 719 mmHg 61%
    01:00 +27°C° 0 mm 2 mps 719 mmHg 61%
    02:00 +27°C° 0 mm 2 mps 719 mmHg 61%
    03:00 +27°C° 0 mm 2 mps 718 mmHg 62%
    04:00 +27°C° 0 mm 2 mps 719 mmHg 62%
    05:00 +27°C° 0 mm 2 mps 719 mmHg 62%
    06:00 +27°C° 0 mm 2 mps 719 mmHg 63%
    07:00 +28°C° 0 mm 2 mps 720 mmHg 56%
    08:00 +30°C° 0 mm 2 mps 720 mmHg 50%
    09:00 +31°C° 0 mm 3 mps 720 mmHg 43%
    10:00 +34°C° 0 mm 3 mps 721 mmHg 39%
    11:00 +36°C° 0 mm 3 mps 721 mmHg 34%
    12:00 +37°C° 0 mm 4 mps 721 mmHg 29%
    13:00 +38°C° 0 mm 4 mps 720 mmHg 27%
    14:00 +40°C° 0 mm 4 mps 720 mmHg 24%
    15:00 +41°C° 0 mm 4 mps 720 mmHg 21%
    16:00 +40°C° 0 mm 4 mps 720 mmHg 22%
    17:00 +38°C° 0 mm 3 mps 720 mmHg 22%
    18:00 +38°C° 0 mm 3 mps 720 mmHg 23%
    19:00 +37°C° 0 mm 2 mps 720 mmHg 25%
    20:00 +35°C° 0 mm 2 mps 720 mmHg 28%
    21:00 +34°C° 0 mm 2 mps 720 mmHg 30%
    22:00 +32°C° 0 mm 2 mps 720 mmHg 32%
    23:00 +31°C° 0 mm 2 mps 720 mmHg 34%

    26 July, Friday

    Time Temperature Precipitation Wind Pressure Humidity
    00:00 +31°C° 0 mm 1 mps 719 mmHg 35%
    01:00 +29°C° 0 mm 1 mps 719 mmHg 42%
    02:00 +28°C° 0 mm 1 mps 719 mmHg 48%
    03:00 +27°C° 0 mm 1 mps 718 mmHg 54%
    04:00 +28°C° 0 mm 1 mps 718 mmHg 51%
    05:00 +26°C° 0 mm 0 mps 718 mmHg 49%
    06:00 +27°C° 0 mm 0 mps 718 mmHg 46%
    07:00 +31°C° 0 mm 1 mps 719 mmHg 40%
    08:00 +33°C° 0 mm 1 mps 719 mmHg 34%
    09:00 +36°C° 0 mm 2 mps 719 mmHg 27%
    10:00 +37°C° 0 mm 2 mps 719 mmHg 26%
    11:00 +38°C° 0 mm 3 mps 719 mmHg 25%
    12:00 +40°C° 0 mm 4 mps 719 mmHg 24%
    13:00 +38°C° 0 mm 4 mps 718 mmHg 26%
    14:00 +39°C° 0 mm 5 mps 718 mmHg 28%
    15:00 +37°C° 0 mm 5 mps 718 mmHg 30%
    16:00 +36°C° 0 mm 5 mps 717 mmHg 30%
    17:00 +35°C° 0 mm 5 mps 717 mmHg 31%
    18:00 +34°C° 0 mm 5 mps 717 mmHg 31%
    19:00 +33°C° 0 mm 4 mps 717 mmHg 30%
    20:00 +32°C° 0 mm 4 mps 717 mmHg 29%
    21:00 +30°C° 0 mm 3 mps 717 mmHg 28%
    22:00 +30°C° 0 mm 3 mps 717 mmHg 29%
    23:00 +29°C° 0 mm 3 mps 717 mmHg 30%

    27 July, Saturday

    Time Temperature Precipitation Wind Pressure Humidity
    00:00 +28°C° 0 mm 4 mps 717 mmHg 32%
    01:00 +27°C° 0 mm 4 mps 717 mmHg 32%
    02:00 +26°C° 0 mm 4 mps 716 mmHg 32%
    03:00 +25°C° 0 mm 4 mps 716 mmHg 32%
    04:00 +25°C° 0 mm 4 mps 716 mmHg 33%
    05:00 +25°C° 0 mm 4 mps 717 mmHg 34%
    06:00 +25°C° 0 mm 4 mps 717 mmHg 36%
    07:00 +26°C° 0 mm 6 mps 718 mmHg 33%
    08:00 +27°C° 0 mm 7 mps 718 mmHg 30%
    09:00 +29°C° 0 mm 9 mps 718 mmHg 28%
    10:00 +29°C° 0 mm 9 mps 718 mmHg 26%
    11:00 +31°C° 0 mm 9 mps 718 mmHg 24%
    12:00 +32°C° 0 mm 10 mps 718 mmHg 22%
    13:00 +32°C° 0 mm 9 mps 718 mmHg 20%
    14:00 +32°C° 0 mm 9 mps 718 mmHg 18%
    15:00 +32°C° 0 mm 8 mps 718 mmHg 16%
    16:00 +30°C° 0 mm 7 mps 717 mmHg 17%
    17:00 +29°C° 0 mm 6 mps 717 mmHg 17%
    18:00 +28°C° 0 mm 5 mps 717 mmHg 17%
    19:00 +27°C° 0 mm 4 mps 717 mmHg 19%
    20:00 +26°C° 0 mm 3 mps 717 mmHg 21%
    21:00 +25°C° 0 mm 2 mps 718 mmHg 23%
    22:00 +24°C° 0 mm 2 mps 717 mmHg 23%
    23:00 +24°C° 0 mm 2 mps 717 mmHg 23%

    28 July, Sunday

    Time Temperature Precipitation Wind Pressure Humidity
    00:00 +23°C° 0 mm 2 mps 717 mmHg 23%
    01:00 +23°C° 0 mm 1 mps 717 mmHg 24%
    02:00 +22°C° 0 mm 1 mps 716 mmHg 25%
    03:00 +22°C° 0 mm 1 mps 716 mmHg 26%
    04:00 +22°C° 0 mm 1 mps 716 mmHg 26%
    05:00 +23°C° 0 mm 1 mps 717 mmHg 26%
    06:00 +23°C° 0 mm 1 mps 717 mmHg 26%
    07:00 +25°C° 0 mm 1 mps 717 mmHg 23%
    08:00 +27°C° 0 mm 1 mps 718 mmHg 20%
    09:00 +29°C° 0 mm 1 mps 718 mmHg 17%
    10:00 +31°C° 0 mm 1 mps 718 mmHg 16%
    11:00 +32°C° 0 mm 2 mps 718 mmHg 15%
    12:00 +35°C° 0 mm 2 mps 718 mmHg 14%
    13:00 +35°C° 0 mm 3 mps 718 mmHg 15%
    14:00 +36°C° 0 mm 4 mps 718 mmHg 16%
    15:00 +36°C° 0 mm 5 mps 717 mmHg 17%
    16:00 +34°C° 0 mm 5 mps 717 mmHg 20%
    17:00 +33°C° 0 mm 4 mps 717 mmHg 24%
    18:00 +30°C° 0 mm 4 mps 716 mmHg 28%
    19:00 +29°C° 0 mm 3 mps 717 mmHg 31%
    20:00 +28°C° 0 mm 2 mps 717 mmHg 35%
    21:00 +27°C° 0 mm 1 mps 717 mmHg 38%
    22:00 +24°C° 0 mm 0 mps 717 mmHg 41%
    23:00 +24°C° 0 mm 0 mps 717 mmHg 43%
    Show more